Weather History for KCNK - December, 2013

Change the Weather History Date:

Sunday, December 22, 2013

  Actual Average Record
Temperature  
Mean Temperature 19 °F 29 °F  
Max Temperature 27 °F 38 °F 69 °F (1933)
Min Temperature 10 °F 19 °F -26 °F (1989)
Degree Days  
Heating Degree Days 46 36  
Month to date heating degree days 848 755  
Since 1 July heating degree days 1904 1847  
Cooling Degree Days 0 0  
Month to date cooling degree days 0 0  
Year to date cooling degree days 1359 1349  
Moisture  
Dew Point 14 °F    
Average Humidity 74    
Maximum Humidity 92    
Minimum Humidity 55    
Precipitation  
Precipitation 0.01 in 0.02 in 0.77 in (1941)
Month to date precipitation 0.51 0.66  
Year to date precipitation 27.16 27.70  
Snow  
Snow 0.20 in 0.10 in 2.60 in (1966)
Month to date snowfall 5.8 2.6  
Year to date snowfall 26.1 19.0  
Since 1 July snowfall 5.8 5.3  
Snow Depth 3.00 in    
Sea Level Pressure  
Sea Level Pressure 30.15 in    
Wind  
Wind Speed 10 mph (NNW)    
Max Wind Speed 22 mph    
Max Gust Speed 27 mph    
Visibility 9 miles    
Events Snow    
T = Trace of Precipitation, MM = Missing Value Source: NWS Daily Summary

Daily Weather History Graph

Daily Weather History Graph

Search for Another Location

Airport or City:

Trip Planner

Search our weather history database for the weather conditions in past years. The results will help you decide how hot, cold, wet, or windy it might be!

Date:

Astronomy

Dec. 22, 2013 Rise Set
Actual Time 7:48 AM CST 5:10 PM CST
Civil Twilight 7:17 AM CST 5:41 PM CST
Nautical Twilight 6:43 AM CST 6:14 PM CST
Astronomical Twilight 6:11 AM CST 6:47 PM CST
Moon 10:23 PM CST (12/22) 10:46 AM CST (12/22)
Length of Visible Light 10h 23m
Length of Day
9h 22m
Waning Gibbous, 76% of the Moon is Illuminated
Dec 22
Waning Gibbous
Dec 25
Last Quarter
Jan 1
New
Jan 7
First Quarter
Jan 15
Full

Hourly Weather History & Observations

Time (CST) Temp. Windchill Dew Point Humidity Pressure Visibility Wind Dir Wind Speed Gust Speed Precip Events Conditions
12:18 AM 21.9 °F 7.8 °F 19.9 °F 92% 29.85 in 1.5 mi NNW 17.3 mph - 0.00 in Snow Light Snow
12:24 AM 21.9 °F 8.7 °F 19.0 °F 89% 29.85 in 2.0 mi NNW 15.0 mph 24.2 mph 0.00 in Snow Light Snow
12:37 AM 21.9 °F 8.7 °F 19.0 °F 89% 29.85 in 2.5 mi NNW 15.0 mph - 0.01 in Snow Light Snow
12:55 AM 21.9 °F 8.2 °F 18.0 °F 85% 29.91 in 3.0 mi NNW 16.1 mph 25.3 mph 0.01 in Snow Light Snow
1:55 AM 21.9 °F 9.2 °F 17.1 °F 82% 29.94 in 10.0 mi North 13.8 mph - 0.00 in   Overcast
2:27 AM 21.0 °F 8.1 °F 16.0 °F 81% 29.90 in 10.0 mi North 13.8 mph - N/A   Scattered Clouds
2:55 AM 19.9 °F 5.2 °F 16.0 °F 85% 29.97 in 10.0 mi NNW 17.3 mph 24.2 mph N/A   Mostly Cloudy
3:55 AM 19.9 °F 5.2 °F 15.1 °F 81% 30.00 in 10.0 mi NNW 17.3 mph 25.3 mph N/A   Overcast
4:55 AM 19.9 °F 5.2 °F 15.1 °F 81% 30.01 in 10.0 mi NNW 17.3 mph 25.3 mph N/A   Overcast
5:39 AM 19.0 °F 4.5 °F 15.1 °F 85% 30.00 in 10.0 mi NNW 16.1 mph - N/A   Overcast
5:55 AM 19.0 °F 4.0 °F 15.1 °F 85% 30.06 in 10.0 mi NNW 17.3 mph - N/A   Overcast
6:55 AM 19.0 °F 6.8 °F 14.0 °F 81% 30.09 in 10.0 mi NNW 11.5 mph - N/A   Overcast
7:55 AM 18.0 °F 4.8 °F 12.9 °F 81% 30.13 in 10.0 mi NNW 12.7 mph - N/A   Overcast
8:27 AM 16.0 °F 2.3 °F 10.9 °F 81% 30.08 in 10.0 mi NNW 12.7 mph - N/A   Scattered Clouds
8:55 AM 16.0 °F 4.4 °F 12.0 °F 84% 30.17 in 10.0 mi NNW 9.2 mph - N/A   Clear
9:55 AM 18.0 °F 5.4 °F 12.0 °F 78% 30.20 in 10.0 mi NW 11.5 mph - N/A   Clear
10:55 AM 19.9 °F 7.9 °F 14.0 °F 78% 30.22 in 10.0 mi NNW 11.5 mph - N/A   Clear
11:55 AM 21.9 °F 10.4 °F 14.0 °F 72% 30.22 in 10.0 mi NNW 11.5 mph - N/A   Clear
12:55 PM 24.1 °F 14.4 °F 15.1 °F 69% 30.21 in 10.0 mi NW 9.2 mph - N/A   Clear
1:55 PM 26.1 °F 16.2 °F 15.1 °F 63% 30.21 in 10.0 mi NW 10.4 mph - N/A   Clear
2:55 PM 27.0 °F 17.3 °F 14.0 °F 58% 30.21 in 10.0 mi NNW 10.4 mph - N/A   Clear
3:55 PM 27.0 °F 18.7 °F 12.9 °F 56% 30.23 in 10.0 mi NNW 8.1 mph - N/A   Clear
4:55 PM 25.0 °F 17.1 °F 12.9 °F 60% 30.25 in 10.0 mi NNW 6.9 mph - N/A   Clear
5:55 PM 23.0 °F 18.4 °F 12.0 °F 63% 30.28 in 10.0 mi North 3.5 mph - N/A   Clear
6:55 PM 19.9 °F - 12.0 °F 71% 30.31 in 10.0 mi Calm Calm - N/A   Clear
7:55 PM 18.0 °F 12.7 °F 12.0 °F 78% 30.35 in 10.0 mi NNW 3.5 mph - N/A   Clear
8:55 PM 12.9 °F 6.9 °F 9.0 °F 84% 30.36 in 10.0 mi East 3.5 mph - N/A   Clear
9:55 PM 14.0 °F - 10.0 °F 84% 30.39 in 10.0 mi Calm Calm - N/A   Mostly Cloudy
10:55 PM 12.9 °F 6.9 °F 8.1 °F 81% 30.42 in 10.0 mi ENE 3.5 mph - N/A   Overcast
11:55 PM 12.9 °F 6.9 °F 8.1 °F 81% 30.44 in 10.0 mi NE 3.5 mph - N/A   Overcast